Home > Weather > Kaunas > Past weeks

Flag for Lithuania Past Weather in Kaunas, Lithuania — Yesterday and Last 2 Weeks

Now
64 °F

Passing clouds.


Feels Like: 64 °F
Forecast: 54 / 75 °F
Wind: 6 mph from West

Location: Kaunas

Current Time: Jun 27, 2016 at 3:32:40 AM

Latest Report: Jun 27, 2016 at 2:50 AM


Visibility: N/A

Pressure: 29.86 "Hg

Humidity: 94%

Dew Point: 63 °F

Location of KaunasLocation

Past Weather in Kaunas — Graph

°F

Kaunas Temperature Yesterday

Maximum temperature yesterday: 90 °F (at 2:50 PM)
Minimum temperature yesterday: 68 °F (at 10:50 PM)
Average temperature yesterday: 80 °F

High & Low Weather Summary for the Past Weeks

 TemperatureHumidityPressure
High90 °F (Jun 25, 2:50 PM)100% (Jun 16, 1:20 AM)30.36 "Hg (Jun 16, 1:20 AM)
Low39 °F (Jun 13, 4:50 AM)30% (Jun 13, 7:50 PM)29.45 "Hg (Jun 17, 5:20 PM)
Average66 °F69%29.93 "Hg
* Reported Jun 12 2:20 AM — Jun 27 2:20 AM, Kaunas, Weather by CustomWeather, © 2016

Note: Actual official high and low records may vary slightly from our data, if they occured in-between our weather recording intervals... More about our weather records

Advertising

Kaunas Weather History for the Previous 24 Hours

Scroll right to see more
 ConditionsComfort  
Time TempWeatherWind HumidityBarometerVisibility
2:20 AM
Mon, Jun 27
64 °FPassing clouds.6 mph94%29.86 "HgN/A
1:50 AM64 °FClear.2 mph94%29.89 "Hg10 mi
1:20 AM66 °FClear.2 mph88%29.86 "Hg10 mi
12:50 AM68 °FPassing clouds.3 mph83%29.86 "HgN/A
12:20 AM68 °FPassing clouds.3 mph83%29.89 "HgN/A
11:50 PM
Sun, Jun 26
68 °FThundershowers. Passing clouds.7 mph83%29.89 "HgN/A
11:20 PM68 °FThunderstorms. Passing clouds.8 mph88%29.86 "HgN/A
10:50 PM68 °FThunderstorms. Broken clouds.5 mph94%29.89 "HgN/A
10:20 PM70 °FThunderstorms. More clouds than sun.2 mph88%29.89 "HgN/A
9:50 PM72 °FThunderstorms. Mostly cloudy.12 mph83%29.86 "HgN/A
9:20 PM73 °FThunderstorms. Mostly cloudy.13 mph78%29.86 "HgN/A
9:02 PM77 °FThunderstorms. More clouds than sun.20 mph65%29.86 "HgN/A
8:20 PM82 °FThundershowers. Passing clouds.1 mph62%29.86 "HgN/A
7:50 PM84 °FSunny.No wind55%29.86 "Hg10 mi
7:20 PM86 °FSunny.2 mph49%29.86 "Hg10 mi
6:50 PM88 °FSunny.3 mph46%29.86 "Hg10 mi
6:20 PM88 °FPassing clouds.5 mph46%29.86 "HgN/A
5:50 PM90 °FPassing clouds.6 mph41%29.86 "HgN/A
5:20 PM90 °FPassing clouds.6 mph38%29.86 "HgN/A
4:50 PM90 °FPassing clouds.7 mph38%29.86 "HgN/A
4:20 PM90 °FPassing clouds.5 mph38%29.86 "HgN/A
3:50 PM90 °FPassing clouds.6 mph38%29.89 "HgN/A
3:20 PM88 °FSunny.7 mph40%29.89 "Hg10 mi
2:50 PM90 °FPassing clouds.6 mph41%29.92 "HgN/A
2:20 PM88 °FPassing clouds.8 mph40%29.92 "HgN/A
1:50 PM88 °FPassing clouds.7 mph40%29.92 "HgN/A
1:20 PM88 °FPassing clouds.9 mph40%29.92 "HgN/A
12:50 PM86 °FPassing clouds.10 mph43%29.92 "HgN/A
12:20 PM86 °FPassing clouds.13 mph43%29.92 "HgN/A
11:50 AM86 °FPassing clouds.13 mph43%29.92 "HgN/A
11:20 AM84 °FPassing clouds.12 mph45%29.92 "HgN/A
10:50 AM84 °FPassing clouds.12 mph51%29.92 "HgN/A
10:20 AM82 °FPassing clouds.10 mph55%29.92 "HgN/A
9:50 AM81 °FPassing clouds.12 mph58%29.92 "HgN/A
9:20 AM79 °FSunny.13 mph61%29.92 "Hg10 mi
8:50 AM77 °FPassing clouds.13 mph61%29.92 "HgN/A
8:20 AM77 °FPassing clouds.10 mph61%29.92 "HgN/A
7:50 AM75 °FPassing clouds.8 mph65%29.95 "HgN/A
7:20 AM75 °FPassing clouds.7 mph65%29.95 "HgN/A
6:50 AM73 °FMore clouds than sun.3 mph69%29.95 "HgN/A
6:20 AM73 °FThundershowers. More clouds than sun.2 mph69%29.95 "HgN/A
5:50 AM75 °FThunderstorms. Broken clouds.6 mph61%29.95 "HgN/A
5:20 AM73 °FClear.7 mph65%29.95 "Hg10 mi
4:20 AM73 °FClear.7 mph65%29.95 "Hg10 mi
3:50 AM73 °FClear.8 mph65%29.95 "Hg10 mi
3:20 AM75 °FClear.7 mph61%29.95 "Hg10 mi
Weather by CustomWeather, © 2016

See weather overviewHow to use our weather pages